TimeCDT,TemperatureF,Dew PointF,Humidity,Sea Level PressureIn,VisibilityMPH,Wind Direction,Wind SpeedMPH,Gust SpeedMPH,PrecipitationIn,Events,Conditions,WindDirDegrees,DateUTC
12:53 AM,66.9,64.9,93,29.88,10.0,ENE,10.4,-,N/A,,Clear,70,2013-06-22 05:53:00
1:53 AM,66.0,64.0,93,29.92,10.0,Variable,4.6,-,0.00,Rain,Light Rain,0,2013-06-22 06:53:00
2:53 AM,66.0,64.9,96,29.96,9.0,SW,5.8,-,0.01,Rain,Light Rain,220,2013-06-22 07:53:00
3:19 AM,66.2,64.4,94,29.93,8.0,South,3.5,-,0.01,Rain-Thunderstorm,Light Rain,190,2013-06-22 08:19:00
3:34 AM,66.2,64.4,94,29.94,6.0,WSW,5.8,-,0.02,Rain-Thunderstorm,Light Thunderstorms and Rain,250,2013-06-22 08:34:00
3:53 AM,66.0,64.0,93,29.96,4.0,WSW,4.6,-,0.06,Rain,Rain,250,2013-06-22 08:53:00
4:53 AM,64.9,64.0,97,29.99,4.0,ENE,3.5,-,0.08,Rain,Light Rain,70,2013-06-22 09:53:00
5:53 AM,64.9,63.0,93,29.96,9.0,ESE,4.6,-,0.04,Rain,Light Rain,120,2013-06-22 10:53:00
6:53 AM,64.0,63.0,96,29.88,7.0,NNE,8.1,-,0.01,,Scattered Clouds,30,2013-06-22 11:53:00
7:23 AM,64.4,62.6,94,29.84,6.0,NNE,10.4,25.3,N/A,,Scattered Clouds,30,2013-06-22 12:23:00
7:37 AM,64.4,62.6,94,29.87,6.0,ENE,8.1,18.4,N/A,,Mostly Cloudy,60,2013-06-22 12:37:00
7:53 AM,64.9,63.0,93,29.90,7.0,NE,6.9,18.4,N/A,,Overcast,50,2013-06-22 12:53:00
8:53 AM,64.9,63.0,93,29.99,8.0,Variable,4.6,-,N/A,,Overcast,0,2013-06-22 13:53:00
9:36 AM,64.4,62.6,94,29.99,8.0,Calm,Calm,-,N/A,,Overcast,0,2013-06-22 14:36:00
9:53 AM,66.0,63.0,90,30.00,9.0,ENE,5.8,-,N/A,,Overcast,60,2013-06-22 14:53:00
10:53 AM,68.0,64.0,87,29.99,10.0,ENE,3.5,-,N/A,,Mostly Cloudy,70,2013-06-22 15:53:00
11:08 AM,68.0,64.4,88,29.97,10.0,ENE,4.6,-,N/A,,Scattered Clouds,70,2013-06-22 16:08:00
11:53 AM,69.1,64.0,84,29.96,10.0,East,5.8,-,N/A,,Overcast,90,2013-06-22 16:53:00
12:53 PM,70.0,64.9,84,29.94,10.0,East,8.1,-,N/A,,Mostly Cloudy,100,2013-06-22 17:53:00
1:00 PM,69.8,64.4,83,29.93,10.0,ESE,3.5,-,N/A,,Scattered Clouds,120,2013-06-22 18:00:00
1:53 PM,71.1,66.0,84,29.95,10.0,ESE,4.6,-,N/A,,Mostly Cloudy,110,2013-06-22 18:53:00
2:00 PM,71.6,64.4,78,29.94,10.0,ESE,4.6,-,N/A,,Mostly Cloudy,110,2013-06-22 19:00:00
2:07 PM,71.6,64.4,78,29.93,10.0,ESE,4.6,-,N/A,,Mostly Cloudy,110,2013-06-22 19:07:00
2:53 PM,73.0,66.0,79,29.94,10.0,ESE,3.5,-,N/A,,Overcast,110,2013-06-22 19:53:00
3:53 PM,75.0,64.9,71,29.94,10.0,SSE,3.5,-,N/A,,Mostly Cloudy,150,2013-06-22 20:53:00
4:38 PM,75.2,64.4,69,29.91,10.0,East,3.5,-,N/A,,Partly Cloudy,100,2013-06-22 21:38:00
4:53 PM,77.0,66.0,69,29.92,10.0,Calm,Calm,-,N/A,,Clear,0,2013-06-22 21:53:00
5:53 PM,75.0,64.9,71,29.91,10.0,SE,4.6,-,N/A,,Scattered Clouds,140,2013-06-22 22:53:00
6:53 PM,73.9,66.9,79,29.89,10.0,ENE,4.6,-,N/A,,Partly Cloudy,60,2013-06-22 23:53:00
7:53 PM,72.0,66.9,84,29.88,10.0,East,4.6,-,N/A,,Clear,80,2013-06-23 00:53:00
8:53 PM,70.0,66.9,90,29.87,10.0,ENE,5.8,-,N/A,,Clear,60,2013-06-23 01:53:00
9:53 PM,68.0,66.0,93,29.89,10.0,ENE,4.6,-,N/A,,Clear,70,2013-06-23 02:53:00
10:53 PM,66.9,64.9,93,29.89,9.0,ENE,5.8,-,N/A,,Clear,70,2013-06-23 03:53:00
11:53 PM,64.9,64.0,97,29.85,8.0,ENE,6.9,-,N/A,,Clear,60,2013-06-23 04:53:00